GW4793 Weather Reports


Display with metric or nautical units.
time (UTC)temp
F
wind
direction
speed
MPH
gust
MPH
rain 1hr
in
rain 24hr
in
rain mn
in
humidity
%
barometer
mb
20260905214316 98 158 0.0 2.0 0.00 0.00 0.00 44 1013.4
20260905213816 97 301 3.0 4.0 0.00 0.00 0.00 46 1013.1
20260905213312 99 353 2.0 4.0 0.00 0.00 0.00 46 1013.3
20260905212812 100 4 2.0 3.0 0.00 0.00 0.00 45 1013.0
20260905212312 99 229 2.0 3.0 0.00 0.00 0.00 45 1013.4
20260905211807 99 279 2.0 4.0 0.00 0.00 0.00 45 1013.5
20260905211302 99 244 2.0 2.0 0.00 0.00 0.00 44 1013.5
20260905210759 99 177 1.0 2.0 0.00 0.00 0.00 47 1013.7
20260905210258 99 76 0.0 1.0 0.00 0.00 0.00 45 1013.6
20260905205757 100 172 1.0 3.0 0.00 0.00 0.00 44 1013.8
20260905205252 99 227 1.0 1.0 0.00 0.00 0.00 45 1013.7
20260905204751 97 201 0.0 2.0 0.00 0.00 0.00 47 1013.9
20260905204247 97 246 2.0 3.0 0.00 0.00 0.00 47 1014.0
20260905203746 98 345 4.0 4.0 0.00 0.00 0.00 47 1014.0
20260905203242 98 287 3.0 6.0 0.00 0.00 0.00 48 1014.0
20260905202737 97 334 3.0 6.0 0.00 0.00 0.00 48 1014.1
20260905202232 98 281 4.0 6.0 0.00 0.00 0.00 47 1014.0
20260905201728 98 1 5.0 6.0 0.00 0.00 0.00 45 1014.2
20260905201222 98 4 3.0 6.0 0.00 0.00 0.00 46 1014.2
20260905200718 98 306 5.0 8.0 0.00 0.00 0.00 48 1014.4
20260905200213 98 22 3.0 7.0 0.00 0.00 0.00 49 1014.4
20260905195711 99 111 0.0 2.0 0.00 0.00 0.00 45 1014.4
20260905195206 98 0 1.0 3.0 0.00 0.00 0.00 45 1014.5
20260905194702 98 284 3.0 3.0 0.00 0.00 0.00 48 1014.5
20260905194155 98 312 4.0 7.0 0.00 0.00 0.00 48 1014.6
20260905193650 98 215 3.0 3.0 0.00 0.00 0.00 47 1014.5
20260905193145 98 262 4.0 4.0 0.00 0.00 0.00 47 1014.6
20260905192640 98 314 2.0 8.0 0.00 0.00 0.00 47 1015.0
20260905192137 97 155 1.0 2.0 0.00 0.00 0.00 49 1015.0
20260905191636 96 288 2.0 2.0 0.00 0.00 0.00 50 1014.9
20260905191134 96 10 2.0 3.0 0.00 0.00 0.00 49 1015.2
20260905190632 98 300 2.0 3.0 0.00 0.00 0.00 47 1015.1
20260905190126 97 292 3.0 7.0 0.00 0.00 0.00 49 1015.2
20260905185625 97 311 6.0 8.0 0.00 0.00 0.00 48 1015.2
20260905185120 98 312 5.0 7.0 0.00 0.00 0.00 47 1015.1
20260905184614 98 336 3.0 6.0 0.00 0.00 0.00 46 1015.3
20260905184113 98 257 2.0 3.0 0.00 0.00 0.00 48 1015.4
20260905183612 98 310 4.0 4.0 0.00 0.00 0.00 49 1015.4
20260905183109 97 222 0.0 2.0 0.00 0.00 0.00 48 1015.4
20260905182608 96 5 2.0 4.0 0.00 0.00 0.00 51 1015.6
20260905182108 96 16 4.0 6.0 0.00 0.00 0.00 52 1015.8
20260905181608 96 304 2.0 3.0 0.00 0.00 0.00 50 1015.9
20260905181107 96 356 3.0 6.0 0.00 0.00 0.00 51 1015.8
20260905180602 96 327 3.0 3.0 0.00 0.00 0.00 51 1015.8
20260905180057 96 63 0.0 4.0 0.00 0.00 0.00 49 1015.9
20260905175556 97 134 1.0 1.0 0.00 0.00 0.00 48 1015.8
20260905175052 96 173 1.0 6.0 0.00 0.00 0.00 49 1016.2
20260905174547 96 139 0.0 7.0 0.00 0.00 0.00 50 1016.1
20260905174042 96 339 1.0 2.0 0.00 0.00 0.00 52 1016.2
20260905173539 96 135 1.0 4.0 0.00 0.00 0.00 52 1016.2
20260905173034 96 63 1.0 4.0 0.00 0.00 0.00 51 1016.2
20260905172533 95 305 3.0 7.0 0.00 0.00 0.00 55 1016.1
20260905172028 95 200 2.0 3.0 0.00 0.00 0.00 53 1016.2
20260905171525 95 343 4.0 6.0 0.00 0.00 0.00 53 1016.3
20260905171020 96 134 2.0 3.0 0.00 0.00 0.00 53 1016.3
20260905170517 96 20 4.0 4.0 0.00 0.00 0.00 53 1016.4
20260905170012 95 338 3.0 6.0 0.00 0.00 0.00 55 1016.7
20260905165507 95 31 4.0 7.0 0.00 0.00 0.00 54 1016.7
20260905165002 94 336 1.0 3.0 0.00 0.00 0.00 54 1016.7
20260905164455 94 355 3.0 6.0 0.00 0.00 0.00 56 1016.7
20260905163950 94 289 4.0 7.0 0.00 0.00 0.00 55 1016.7
20260905163447 94 167 1.0 2.0 0.00 0.00 0.00 56 1016.9
20260905162943 94 359 4.0 6.0 0.00 0.00 0.00 55 1017.0
20260905162438 94 345 4.0 7.0 0.00 0.00 0.00 56 1016.9
20260905161932 94 318 6.0 8.0 0.00 0.00 0.00 56 1017.0
20260905161432 94 0 3.0 7.0 0.00 0.00 0.00 56 1016.8
20260905160930 94 49 1.0 2.0 0.00 0.00 0.00 55 1017.1
20260905160424 94 348 5.0 6.0 0.00 0.00 0.00 57 1017.1
20260905155918 93 25 3.0 6.0 0.00 0.00 0.00 59 1017.2
20260905155418 93 355 5.0 8.0 0.00 0.00 0.00 59 1017.1
20260905154917 93 359 3.0 4.0 0.00 0.00 0.00 59 1017.0
20260905154413 93 298 2.0 3.0 0.00 0.00 0.00 61 1017.1
20260905153908 91 27 4.0 4.0 0.00 0.00 0.00 60 1016.9
20260905153404 91 290 2.0 6.0 0.00 0.00 0.00 62 1017.0
20260905152904 93 308 5.0 6.0 0.00 0.00 0.00 60 1017.0
20260905152403 91 319 1.0 4.0 0.00 0.00 0.00 62 1017.2
20260905151858 91 291 3.0 4.0 0.00 0.00 0.00 60 1017.1
20260905151349 91 283 3.0 4.0 0.00 0.00 0.00 60 1017.2
20260905150848 92 16 3.0 6.0 0.00 0.00 0.00 59 1017.3
20260905150343 91 81 1.0 4.0 0.00 0.00 0.00 60 1017.2
20260905145840 91 20 2.0 4.0 0.00 0.00 0.00 61 1017.2
20260905145335 91 12 4.0 4.0 0.00 0.00 0.00 61 1017.4
20260905144834 90 59 1.0 3.0 0.00 0.00 0.00 62 1017.2
20260905144329 90 347 0.0 1.0 0.00 0.00 0.00 65 1017.1
20260905143828 89 36 1.0 2.0 0.00 0.00 0.00 63 1017.2
20260905143322 88 86 1.0 1.0 0.00 0.00 0.00 66 1017.2
20260905142821 88 7 3.0 3.0 0.00 0.00 0.00 66 1017.3
20260905142316 88 52 1.0 3.0 0.00 0.00 0.00 65 1017.3
20260905141812 88 72 1.0 2.0 0.00 0.00 0.00 67 1017.4
20260905141307 87 68 1.0 1.0 0.00 0.00 0.00 69 1017.3
20260905140802 86 41 2.0 2.0 0.00 0.00 0.00 70 1017.5
20260905140302 86 55 2.0 2.0 0.00 0.00 0.00 70 1017.3
20260905135801 86 70 1.0 2.0 0.00 0.00 0.00 74 1017.3
20260905135257 86 283 1.0 2.0 0.00 0.00 0.00 74 1017.4
20260905134757 85 39 1.0 1.0 0.00 0.00 0.00 76 1017.4
20260905134250 85 61 0.0 0.0 0.00 0.00 0.00 77 1017.8
20260905133745 84 62 0.0 0.0 0.00 0.00 0.00 78 1017.7
20260905133240 83 61 1.0 1.0 0.00 0.00 0.00 80 1017.5
20260905132739 82 64 0.0 0.0 0.00 0.00 0.00 81 1017.6
20260905132230 81 64 0.0 0.0 0.00 0.00 0.00 87 1017.6
20260905131730 79 81 1.0 1.0 0.00 0.00 0.00 89 1017.9
20260905131225 77 72 0.0 1.0 0.00 0.00 0.00 96 1017.9
20260905130719 76 173 1.0 2.0 0.00 0.00 0.00 98 1017.7
20260905130214 76 85 0.0 0.0 0.00 0.00 0.00 99 1017.7
20260905125709 75 85 0.0 0.0 0.00 0.00 0.00 99 1017.7
20260905125204 75 85 0.0 0.0 0.00 0.00 0.00 99 1017.5
20260905124700 74 85 0.0 0.0 0.00 0.00 0.00 99 1017.6
20260905124156 74 85 0.0 0.0 0.00 0.00 0.00 99 1017.6
20260905123651 73 85 0.0 0.0 0.00 0.00 0.00 99 1017.7
20260905123148 73 85 0.0 0.0 0.00 0.00 0.00 99 1017.6
20260905122647 73 85 0.0 0.0 0.00 0.00 0.00 99 1017.6
20260905122142 72 85 0.0 0.0 0.00 0.00 0.00 99 1017.7
20260905121637 72 85 0.0 0.0 0.00 0.00 0.00 99 1017.6
20260905121132 72 85 0.0 0.0 0.00 0.00 0.00 99 1017.5
20260905120631 72 85 0.0 0.0 0.00 0.00 0.00 99 1017.4
20260905120126 72 85 0.0 0.0 0.00 0.00 0.00 99 1017.4
20260905115620 72 85 0.0 0.0 0.00 0.00 0.00 99 1017.3
20260905115115 72 85 0.0 0.0 0.00 0.00 0.00 99 1017.4
20260905114614 72 85 0.0 0.0 0.00 0.00 0.00 99 1017.2
20260905114112 72 85 0.0 0.0 0.00 0.00 0.00 99 1017.0
20260905113603 72 85 0.0 0.0 0.00 0.00 0.00 99 1017.3
20260905113057 71 85 0.0 0.0 0.00 0.00 0.00 99 1017.2
20260905112547 72 85 0.0 0.0 0.00 0.00 0.00 99 1016.8
20260905112043 72 85 0.0 0.0 0.00 0.00 0.00 99 1016.7
20260905111537 72 85 0.0 0.0 0.00 0.00 0.00 99 1016.7
20260905111036 72 85 0.0 0.0 0.00 0.00 0.00 99 1016.7
20260905110535 72 85 0.0 0.0 0.00 0.00 0.00 99 1016.5
20260905110030 72 84 0.0 0.0 0.00 0.00 0.00 99 1016.5
20260905105525 72 86 0.0 0.0 0.00 0.00 0.00 99 1016.6
20260905105024 72 86 0.0 0.0 0.00 0.00 0.00 99 1016.6
20260905104520 72 86 0.0 0.0 0.00 0.00 0.00 99 1016.6
20260905104020 72 86 0.0 0.0 0.00 0.00 0.00 99 1016.5
20260905103515 72 86 0.0 0.0 0.00 0.00 0.00 99 1016.5
20260905103011 72 86 0.0 0.0 0.00 0.00 0.00 99 1016.7
20260905102507 72 86 0.0 0.0 0.00 0.00 0.00 99 1016.5
20260905102003 72 86 0.0 0.0 0.00 0.00 0.00 99 1016.4
20260905101501 72 86 0.0 0.0 0.00 0.00 0.00 99 1016.2
20260905101000 72 86 0.0 0.0 0.00 0.00 0.00 99 1016.5
20260905100456 72 86 0.0 0.0 0.00 0.00 0.00 99 1016.2
20260905095955 72 86 0.0 0.0 0.00 0.00 0.00 99 1016.4
20260905095450 72 86 0.0 0.0 0.00 0.00 0.00 99 1016.3
20260905094945 72 86 0.0 0.0 0.00 0.00 0.00 99 1016.0
20260905094440 73 86 0.0 0.0 0.00 0.00 0.00 99 1016.0
20260905093939 73 86 0.0 0.0 0.00 0.00 0.00 99 1016.0
20260905093434 73 86 0.0 0.0 0.00 0.00 0.00 99 1016.0
20260905092930 73 86 0.0 0.0 0.00 0.00 0.00 99 1015.9
20260905092426 73 86 0.0 0.0 0.00 0.00 0.00 99 1015.9
20260905091920 73 86 0.0 0.0 0.00 0.00 0.00 99 1015.9
20260905091415 73 86 0.0 0.0 0.00 0.00 0.00 99 1015.9
20260905090914 73 86 0.0 0.0 0.00 0.00 0.00 99 1016.0
20260905090410 73 86 0.0 0.0 0.00 0.00 0.00 99 1015.7
20260905085908 73 86 0.0 0.0 0.00 0.00 0.00 99 1016.0
20260905085403 73 86 0.0 0.0 0.00 0.00 0.00 99 1015.9
20260905084859 73 86 0.0 0.0 0.00 0.00 0.00 99 1016.0
20260905084358 73 86 0.0 0.0 0.00 0.00 0.00 99 1015.9
20260905083853 73 86 0.0 0.0 0.00 0.00 0.00 99 1015.9
20260905083349 73 86 0.0 0.0 0.00 0.00 0.00 99 1015.9
20260905082844 73 86 0.0 0.0 0.00 0.00 0.00 99 1015.7
20260905082340 73 86 0.0 0.0 0.00 0.00 0.00 99 1016.0
20260905081835 73 86 0.0 0.0 0.00 0.00 0.00 99 1016.0
20260905081330 74 86 0.0 0.0 0.00 0.00 0.00 99 1016.0
20260905080829 74 86 0.0 0.0 0.00 0.00 0.00 99 1016.1
20260905080324 73 86 0.0 0.0 0.00 0.00 0.00 99 1016.1
20260905075822 73 86 0.0 0.0 0.00 0.00 0.00 99 1016.1
20260905075322 73 86 0.0 0.0 0.00 0.00 0.00 98 1016.1
20260905074821 74 85 0.0 0.0 0.00 0.00 0.00 98 1016.0
20260905074317 74 85 0.0 0.0 0.00 0.00 0.00 98 1015.9
20260905073813 74 86 0.0 0.0 0.00 0.00 0.00 98 1016.0
20260905073308 74 86 0.0 0.0 0.00 0.00 0.00 98 1016.1
20260905072807 74 86 0.0 0.0 0.00 0.00 0.00 98 1016.1
20260905072305 74 86 0.0 0.0 0.00 0.00 0.00 98 1016.2
20260905071800 74 86 0.0 0.0 0.00 0.00 0.00 98 1016.2
20260905071256 74 86 0.0 0.0 0.00 0.00 0.00 98 1016.1
20260905070750 74 86 0.0 0.0 0.00 0.00 0.00 98 1016.4
20260905070247 74 86 0.0 0.0 0.00 0.00 0.00 98 1016.4
20260905065745 74 86 0.0 0.0 0.00 0.00 0.00 98 1016.4
20260905065239 74 86 0.0 0.0 0.00 0.00 0.00 98 1016.4
20260905064734 74 85 0.0 0.0 0.00 0.00 0.00 98 1016.3
20260905064229 74 85 0.0 0.0 0.00 0.00 0.00 98 1016.6
20260905063727 75 85 0.0 0.0 0.00 0.00 0.00 98 1016.5
20260905063224 75 85 0.0 0.0 0.00 0.00 0.00 98 1016.5
20260905062719 75 85 0.0 0.0 0.00 0.00 0.00 98 1016.6
20260905062214 75 85 0.0 0.0 0.00 0.00 0.00 97 1016.6
20260905061713 75 85 0.0 0.0 0.00 0.00 0.00 97 1016.5
20260905061208 75 85 0.0 0.0 0.00 0.00 0.00 98 1016.6
20260905060703 75 85 0.0 0.0 0.00 0.00 0.00 98 1016.6
20260905060200 75 85 0.0 0.0 0.00 0.00 0.00 97 1016.6
20260905055658 75 85 0.0 0.0 0.00 0.00 0.00 97 1016.5
20260905055153 75 85 0.0 0.0 0.00 0.00 0.00 97 1016.5
20260905054649 75 85 0.0 0.0 0.00 0.00 0.00 97 1016.9
20260905054145 75 85 0.0 0.0 0.00 0.00 0.00 97 1016.8
20260905053644 75 84 0.0 0.0 0.00 0.00 0.00 96 1016.9
20260905053139 75 85 0.0 0.0 0.00 0.00 0.00 96 1016.8
20260905052639 76 85 0.0 0.0 0.00 0.00 0.00 96 1016.9
20260905052133 76 85 0.0 0.0 0.00 0.00 0.00 96 1016.8
20260905051629 76 85 0.0 0.0 0.00 0.00 0.00 96 1016.7
20260905051125 76 85 0.0 0.0 0.00 0.00 0.00 96 1016.8
20260905050621 76 85 0.0 0.0 0.00 0.00 0.00 96 1016.8
20260905050118 76 85 0.0 0.0 0.00 0.00 0.00 96 1016.6
20260905045612 76 84 0.0 0.0 0.00 0.00 0.00 96 1016.9
20260905045108 76 85 0.0 0.0 0.00 0.00 0.00 96 1016.6
20260905044608 76 85 0.0 0.0 0.00 0.00 0.00 96 1016.8
20260905044103 76 85 0.0 0.0 0.00 0.00 0.00 96 1016.7
20260905043601 76 84 0.0 0.0 0.00 0.00 0.00 95 1016.5
20260905043057 76 84 0.0 0.0 0.00 0.00 0.00 96 1016.7
20260905042555 77 108 0.0 0.0 0.00 0.00 0.00 96 1016.7
20260905042051 77 110 0.0 0.0 0.00 0.00 0.00 95 1016.7
20260905041546 77 110 0.0 0.0 0.00 0.00 0.00 95 1016.6
20260905041042 77 110 0.0 0.0 0.00 0.00 0.00 96 1016.7
20260905040541 77 110 0.0 0.0 0.00 0.00 0.00 95 1016.7
20260905040039 77 110 0.0 0.0 0.00 0.00 0.00 95 1016.6
20260905035535 77 110 0.0 0.0 0.00 0.00 0.00 95 1016.7
20260905035031 77 110 0.0 0.0 0.00 0.00 0.00 94 1016.7
20260905034527 77 109 0.0 0.0 0.00 0.00 0.00 95 1016.8
20260905034026 77 108 0.0 0.0 0.00 0.00 0.00 94 1017.0
20260905033520 77 108 0.0 0.0 0.00 0.00 0.00 94 1016.8
20260905033017 77 108 0.0 0.0 0.00 0.00 0.00 94 1017.1
20260905032511 77 108 0.0 0.0 0.00 0.00 0.00 93 1017.1
20260905032001 77 108 0.0 0.0 0.00 0.00 0.00 93 1016.9
20260905031456 78 108 0.0 0.0 0.00 0.00 0.00 92 1017.1
20260905030951 78 108 0.0 0.0 0.00 0.00 0.00 92 1017.0
20260905030447 78 100 0.0 0.0 0.00 0.00 0.00 92 1017.0
20260905025945 78 100 0.0 0.0 0.00 0.00 0.00 93 1017.2
20260905025441 78 101 0.0 1.0 0.00 0.00 0.00 93 1017.1
20260905024938 78 111 0.0 0.0 0.00 0.00 0.00 92 1017.2
20260905024438 78 111 0.0 0.0 0.00 0.00 0.00 92 1016.9
20260905023933 78 111 0.0 0.0 0.00 0.00 0.00 92 1016.8
20260905023428 79 111 0.0 0.0 0.00 0.00 0.00 90 1017.0
20260905022927 79 110 0.0 0.0 0.00 0.00 0.00 90 1017.0
20260905022422 79 111 0.0 0.0 0.00 0.00 0.00 91 1016.9
20260905021917 79 110 0.0 0.0 0.00 0.00 0.00 90 1016.8
20260905021412 79 110 0.0 0.0 0.00 0.00 0.00 90 1016.8
20260905020907 79 110 0.0 0.0 0.00 0.00 0.00 89 1016.7
20260905020406 80 110 0.0 0.0 0.00 0.00 0.00 90 1016.9
20260905015907 80 110 0.0 0.0 0.00 0.00 0.00 89 1016.8
20260905015405 80 110 0.0 0.0 0.00 0.00 0.00 88 1016.6
20260905014904 80 112 0.0 0.0 0.00 0.00 0.00 88 1016.6
20260905014400 80 112 0.0 0.0 0.00 0.00 0.00 88 1016.5
20260905013855 80 112 0.0 0.0 0.00 0.00 0.00 87 1016.5
20260905013351 81 110 0.0 0.0 0.00 0.00 0.00 86 1016.6
20260905012846 81 110 0.0 0.0 0.00 0.00 0.00 85 1016.2
20260905012342 81 116 0.0 0.0 0.00 0.00 0.00 85 1016.4
20260905011838 81 117 0.0 0.0 0.00 0.00 0.00 85 1016.4
20260905011334 81 117 0.0 0.0 0.00 0.00 0.00 86 1016.2
20260905010829 81 116 0.0 0.0 0.00 0.00 0.00 87 1016.5
20260905010323 82 116 0.0 0.0 0.00 0.00 0.00 87 1016.2
20260905005820 82 116 0.0 0.0 0.00 0.00 0.00 86 1016.4
20260905005316 82 116 0.0 0.0 0.00 0.00 0.00 87 1016.3
20260905004816 82 116 0.0 0.0 0.00 0.00 0.00 85 1016.4
20260905004310 83 116 0.0 0.0 0.00 0.00 0.00 85 1016.4
20260905003806 83 116 0.0 0.0 0.00 0.00 0.00 83 1016.2
20260905003302 84 116 0.0 0.0 0.00 0.00 0.00 82 1016.3
20260905002757 84 116 0.0 0.0 0.00 0.00 0.00 81 1016.2
20260905002256 84 116 0.0 0.0 0.00 0.00 0.00 81 1016.0
20260905001752 85 116 0.0 0.0 0.00 0.00 0.00 80 1016.1
20260905001251 86 116 0.0 0.0 0.00 0.00 0.00 78 1016.3
20260905000747 87 116 0.0 0.0 0.00 0.00 0.00 77 1016.1
20260905000242 87 116 0.0 0.0 0.00 0.00 0.00 72 1016.0
20260904235738 87 116 0.0 0.0 0.00 0.00 0.00 73 1016.1
20260904235232 88 116 0.0 0.0 0.00 0.00 0.00 73 1016.0
20260904234726 91 116 0.0 0.0 0.00 0.00 0.00 69 1016.2
20260904234222 92 116 0.0 0.0 0.00 0.00 0.00 68 1016.0
20260904233718 93 117 0.0 0.0 0.00 0.00 0.00 64 1016.0
20260904233214 95 118 0.0 0.0 0.00 0.00 0.00 61 1016.1
20260904232710 95 122 0.0 0.0 0.00 0.00 0.00 62 1016.2
20260904232206 95 124 0.0 0.0 0.00 0.00 0.00 61 1016.0
20260904231701 95 125 0.0 0.0 0.00 0.00 0.00 55 1015.8
20260904231156 96 126 0.0 1.0 0.00 0.00 0.00 55 1016.0
20260904230656 98 127 0.0 0.0 0.00 0.00 0.00 51 1015.9
20260904230151 98 127 0.0 0.0 0.00 0.00 0.00 49 1015.9
20260904225649 98 127 0.0 0.0 0.00 0.00 0.00 51 1016.0
20260904225144 98 127 0.0 0.0 0.00 0.00 0.00 51 1015.7
20260904224638 98 126 0.0 0.0 0.00 0.00 0.00 50 1015.9
20260904224133 98 14 0.0 1.0 0.00 0.00 0.00 49 1015.8
20260904223632 99 358 1.0 2.0 0.00 0.00 0.00 48 1015.8
20260904223128 99 315 0.0 2.0 0.00 0.00 0.00 45 1015.8
20260904222624 99 319 1.0 2.0 0.00 0.00 0.00 44 1015.8
20260904222119 99 346 1.0 2.0 0.00 0.00 0.00 45 1015.7
20260904221619 99 87 0.0 3.0 0.00 0.00 0.00 43 1015.7
20260904221119 98 345 1.0 4.0 0.00 0.00 0.00 43 1016.0
20260904220614 98 199 1.0 2.0 0.00 0.00 0.00 44 1015.7
20260904220109 98 9 1.0 2.0 0.00 0.00 0.00 45 1015.8
20260904215603 98 6 3.0 4.0 0.00 0.00 0.00 45 1015.7
20260904215059 99 312 1.0 2.0 0.00 0.00 0.00 44 1015.8
20260904214554 99 328 4.0 6.0 0.00 0.00 0.00 44 1015.8